Stations météo

réclame
Mon MeteoGroup
Geisenheim, Allemagne (10628): Température de l'air & dewpoint: 17.04.2018 04:00:00 - 23.04.2018 04:00:00 (CEST)Geisenheim, Allemagne (10628): Température de l'air 5cm & Température de l'air -5cm: 17.04.2018 04:00:00 - 23.04.2018 04:00:00 (CEST)Geisenheim, Allemagne (10628): Température de l'air -20cm & Température de l'air -100cm: 17.04.2018 04:00:00 - 23.04.2018 04:00:00 (CEST)Geisenheim, Allemagne (10628): Vitesse du vent & gusts: 17.04.2018 04:00:00 - 23.04.2018 04:00:00 (CEST)Geisenheim, Allemagne (10628): Direction du vent: 17.04.2018 04:00:00 - 23.04.2018 04:00:00 (CEST)Geisenheim, Allemagne (10628): reduced air pressure: 17.04.2018 04:00:00 - 23.04.2018 04:00:00 (CEST)Geisenheim, Allemagne (10628): visibility: 17.04.2018 04:00:00 - 23.04.2018 04:00:00 (CEST)Geisenheim, Allemagne (10628): Ensoleillement: 17.04.2018 04:00:00 - 23.04.2018 04:00:00 (CEST)Geisenheim, Allemagne (10628): Quantités de précipitations: 17.04.2018 04:00:00 - 23.04.2018 04:00:00 (CEST)
Date & Time tt [°C] td [°C] tt 5cm [°C] tt -5cm [°C] tt -20cm [°C] tt -100cm [°C] ff [km/h] ff [knt] fx [km/h] fx [knt] dd ppp [hPa] vv [km] sd [min] rr [mm]
23.04.2018 04:00:00 - - - - - - - - - - - - - - -
23.04.2018 03:00:00 15,9 11,5 13,7 17,5 19,6 13,2 4 2 9 5 N 1013,2 20 0 0,0
23.04.2018 02:00:00 16,1 11,0 12,7 18,0 20,0 13,1 2 1 8 4 NNE 1013,4 29 0 0,0
23.04.2018 01:00:00 16,6 10,6 13,3 18,7 20,3 13,1 4 2 7 4 WNW 1013,3 22 0 0,0
23.04.2018 00:00:00 18,1 10,7 14,4 19,6 20,7 13,1 3 1 13 7 NW 1013,2 23 0 0,0
22.04.2018 23:00:00 19,9 10,0 16,5 20,4 21,0 13,1 10 5 14 7 NNW 1012,8 25 0 0,0
22.04.2018 22:00:00 20,6 9,2 16,9 21,5 21,2 13,1 8 5 16 9 NW 1012,2 24 0 0,0
22.04.2018 21:00:00 22,5 8,1 18,9 22,9 21,4 13,1 11 6 22 12 W 1011,7 23 0 0,0
22.04.2018 20:00:00 24,8 8,0 22,3 24,4 21,4 13,0 13 7 36 19 W 1011,1 27 1 0,0
22.04.2018 19:00:00 26,4 8,7 25,3 26,0 21,3 13,0 21 12 35 19 WSW 1010,6 29 43 0,0
22.04.2018 18:00:00 27,0 8,1 26,6 27,0 21,1 13,0 22 12 37 20 WSW 1010,6 23 33 0,0
22.04.2018 17:00:00 27,7 9,4 29,4 27,6 20,6 13,0 18 10 32 17 SW 1010,5 20 21 0,0
22.04.2018 16:00:00 28,0 10,3 29,9 29,2 20,0 13,0 15 8 24 13 SSW 1011,2 21 50 0,0
22.04.2018 15:00:00 26,3 13,8 30,5 29,0 19,3 12,9 7 4 13 7 SSE 1012,3 19 59 0,0
22.04.2018 14:00:00 25,4 13,7 30,0 27,4 18,5 12,9 6 4 16 9 S 1013,1 17 60 0,0
22.04.2018 13:00:00 23,6 12,7 28,8 25,3 17,9 12,9 5 3 11 6 SSE 1013,9 12 60 0,0
22.04.2018 12:00:00 21,8 12,9 27,0 22,4 17,5 12,9 5 3 11 6 SSW 1014,8 9 60 0,0
22.04.2018 11:00:00 20,4 12,1 24,7 19,6 17,2 12,8 6 3 11 6 SSE 1015,2 11 60 0,0
22.04.2018 10:00:00 18,6 11,3 21,3 16,9 17,2 12,8 3 2 6 3 S 1015,5 13 60 0,0
22.04.2018 09:00:00 15,7 11,2 17,1 15,2 17,4 12,8 3 1 5 3 SSW 1015,7 11 60 0,0
22.04.2018 08:00:00 13,4 10,4 12,7 14,6 17,7 12,8 2 1 6 4 WSW 1015,9 10 38 0,0
22.04.2018 07:00:00 12,1 10,7 9,6 14,6 18,1 12,8 5 3 7 4 WSW 1015,9 10 0 0,0
22.04.2018 06:00:00 12,3 9,7 9,2 15,1 18,4 12,7 0 0 6 3 N 1015,8 17 0 0,0
22.04.2018 05:00:00 13,1 11,0 9,7 15,7 18,8 12,7 3 2 8 4 W 1016,2 14 0 0,0
22.04.2018 04:00:00 13,3 10,4 10,0 16,3 19,2 12,7 4 2 9 5 NW 1016,6 15 0 0,0
22.04.2018 03:00:00 14,0 11,0 11,1 17,0 19,6 12,7 6 3 10 5 W 1016,9 11 0 0,0
22.04.2018 02:00:00 14,8 10,7 11,9 17,7 20,0 12,7 6 3 9 5 WNW 1017,4 16 0 0,0
22.04.2018 01:00:00 15,9 10,4 12,6 18,6 20,4 12,7 5 3 11 6 WNW 1017,6 18 0 0,0
22.04.2018 00:00:00 16,3 10,3 12,9 19,5 20,8 12,6 3 2 12 6 WNW 1017,6 16 0 0,0
21.04.2018 23:00:00 18,5 10,6 14,6 20,6 21,1 12,6 8 4 12 6 NNE 1017,4 20 0 0,0
21.04.2018 22:00:00 20,4 10,6 15,5 22,0 21,4 12,6 3 2 8 4 NNW 1017,2 21 0 0,0
21.04.2018 21:00:00 21,7 10,9 16,3 23,8 21,5 12,6 3 2 10 5 NE 1017,1 20 0 0,0
21.04.2018 20:00:00 24,4 11,4 21,7 25,9 21,5 12,6 6 3 10 5 NNE 1016,6 21 46 0,0
21.04.2018 19:00:00 26,1 11,3 27,2 27,3 21,3 12,5 3 2 6 3 E 1016,8 18 43 0,0
21.04.2018 18:00:00 26,2 10,5 26,3 28,7 20,9 12,5 4 2 9 5 SW 1017,2 17 43 0,0
21.04.2018 17:00:00 26,7 10,8 29,4 29,4 20,3 12,5 2 1 14 8 WNW 1017,7 17 44 0,0
21.04.2018 16:00:00 26,9 12,4 31,9 29,4 19,6 12,5 7 4 14 8 S 1018,3 19 44 0,0
21.04.2018 15:00:00 26,3 11,5 31,5 29,5 18,8 12,5 8 4 15 8 SSE 1018,8 15 58 0,0
21.04.2018 14:00:00 26,5 11,4 33,0 27,4 18,0 12,4 6 3 13 7 SSE 1019,3 17 60 0,0
21.04.2018 13:00:00 25,3 12,0 30,4 24,9 17,4 12,4 7 4 15 8 S 1019,8 14 60 0,0
21.04.2018 12:00:00 24,3 12,6 28,7 22,2 17,0 12,4 8 5 17 9 SSE 1020,4 19 60 0,0
21.04.2018 11:00:00 23,2 12,9 26,2 19,4 16,7 12,4 11 6 18 10 NNW 1020,5 19 60 0,0
21.04.2018 10:00:00 21,0 12,4 23,5 17,1 16,7 12,4 4 2 12 7 N 1020,6 13 60 0,0
21.04.2018 09:00:00 16,3 11,4 16,6 15,5 16,8 12,3 5 3 7 4 SW 1020,9 12 27 0,0
21.04.2018 08:00:00 15,1 11,2 15,2 14,7 17,1 12,3 6 4 14 8 W 1020,8 12 6 0,0
21.04.2018 07:00:00 13,4 10,2 11,6 14,4 17,4 12,3 8 4 11 6 WNW 1020,5 12 0 0,0
21.04.2018 06:00:00 13,7 10,0 11,5 14,7 17,7 12,3 9 5 14 7 W 1020,1 14 0 0,0
21.04.2018 05:00:00 13,8 10,0 11,2 15,1 18,1 12,3 8 5 12 7 WNW 1020,2 16 0 0,0
21.04.2018 04:00:00 14,4 10,0 10,0 15,6 18,5 12,2 2 1 7 4 WNW 1020,3 17 0 0,0
21.04.2018 03:00:00 14,5 9,6 10,2 16,2 18,9 12,2 1 1 11 6 SSW 1020,3 18 0 0,0
21.04.2018 02:00:00 14,6 10,1 11,2 16,9 19,3 12,2 6 3 9 5 W 1020,6 23 0 0,0
21.04.2018 01:00:00 15,8 10,4 11,7 17,7 19,7 12,2 6 3 9 5 W 1020,9 36 0 0,0
21.04.2018 00:00:00 16,6 10,6 11,5 18,8 20,1 12,2 4 2 6 4 W 1020,6 26 0 0,0
20.04.2018 23:00:00 17,9 8,9 13,5 19,9 20,4 12,2 6 4 10 5 NW 1020,8 28 0 0,0
20.04.2018 22:00:00 18,2 9,7 14,5 21,4 20,7 12,1 9 5 14 8 NNW 1020,9 27 0 0,0
20.04.2018 21:00:00 20,0 10,5 17,4 23,3 20,8 12,1 12 6 14 8 N 1020,5 28 0 0,0
20.04.2018 20:00:00 24,5 9,6 19,3 25,9 20,7 12,1 2 1 6 3 SW 1019,9 29 53 0,0
20.04.2018 19:00:00 26,9 8,0 26,7 27,8 20,4 12,1 3 2 9 5 SSW 1020,1 30 60 0,0
20.04.2018 18:00:00 26,8 8,0 28,8 29,0 19,8 12,1 8 4 15 8 S 1020,5 28 60 0,0
20.04.2018 17:00:00 26,9 8,9 30,2 29,5 19,2 12,1 9 5 15 8 SSE 1021,0 35 60 0,0
20.04.2018 16:00:00 26,6 7,8 31,4 29,2 18,4 12,0 7 4 13 7 SSW 1021,5 24 60 0,0
20.04.2018 15:00:00 26,2 7,6 30,9 28,0 17,6 12,0 7 4 18 10 S 1022,2 28 60 0,0
20.04.2018 14:00:00 25,5 11,4 30,2 26,1 16,8 12,0 10 5 16 9 SSE 1022,9 19 60 0,0
20.04.2018 13:00:00 23,8 9,8 28,6 23,6 16,1 12,0 6 3 13 7 SSE 1023,6 21 60 0,0
20.04.2018 12:00:00 21,5 8,3 26,5 20,4 15,6 11,9 7 4 12 7 SSE 1024,1 16 60 0,0
20.04.2018 11:00:00 19,9 8,3 23,6 17,2 15,4 11,9 5 3 10 5 S 1024,5 34 60 0,0
20.04.2018 10:00:00 16,2 8,0 19,4 14,4 15,5 11,9 9 5 14 8 WSW 1024,7 24 60 0,0
20.04.2018 09:00:00 13,6 8,1 15,0 12,8 15,7 11,9 6 3 8 4 SSW 1024,9 24 60 0,0
20.04.2018 08:00:00 11,2 7,2 10,0 12,1 16,0 11,9 2 1 4 2 SSW 1025,2 22 60 0,0
20.04.2018 07:00:00 10,3 7,8 6,2 12,3 16,4 11,8 0 0 5 3 N 1025,1 26 4 0,0
20.04.2018 06:00:00 10,8 7,7 6,4 12,9 16,8 11,8 3 2 6 4 W 1025,0 26 0 0,0
20.04.2018 05:00:00 11,4 8,2 7,1 13,5 17,2 11,8 4 2 7 4 W 1025,3 25 0 0,0
20.04.2018 04:00:00 11,8 6,6 7,7 14,1 17,6 11,8 4 2 7 4 WNW 1025,4 31 0 0,0
20.04.2018 03:00:00 12,9 8,3 8,5 14,9 18,0 11,8 5 3 8 5 W 1025,4 29 0 0,0
20.04.2018 02:00:00 13,4 7,5 9,2 15,7 18,5 11,8 5 3 9 5 WNW 1025,7 43 0 0,0
20.04.2018 01:00:00 14,2 6,8 10,2 16,6 18,9 11,7 6 4 9 5 WNW 1025,6 35 0 0,0
20.04.2018 00:00:00 14,7 6,7 10,8 17,7 19,3 11,7 5 3 8 4 NNW 1025,8 29 0 0,0
19.04.2018 23:00:00 18,7 6,4 11,9 19,0 19,7 11,7 5 3 12 6 NE 1025,6 27 0 0,0
19.04.2018 22:00:00 20,3 6,2 15,4 20,4 19,9 11,7 11 6 14 7 NE 1025,7 33 0 0,0
19.04.2018 21:00:00 21,3 7,2 14,6 22,3 20,0 11,7 5 3 10 5 NE 1025,2 31 10 0,0
19.04.2018 20:00:00 25,4 5,8 20,0 24,8 20,0 11,7 4 2 16 8 ESE 1024,7 32 60 0,0
19.04.2018 19:00:00 26,3 6,4 26,2 26,7 19,7 11,6 9 5 24 13 SE 1024,8 35 60 0,0
19.04.2018 18:00:00 26,8 5,7 28,3 28,0 19,2 11,6 15 8 22 12 ESE 1025,0 25 60 0,0
19.04.2018 17:00:00 26,7 6,2 29,3 28,6 18,5 11,6 14 7 21 11 SE 1025,5 26 60 0,0
19.04.2018 16:00:00 26,3 5,3 29,6 28,5 17,8 11,6 15 8 21 11 SE 1026,1 22 60 0,0
19.04.2018 15:00:00 25,0 7,0 31,5 27,3 17,0 11,6 10 5 16 9 ESE 1027,0 21 60 0,0
19.04.2018 14:00:00 23,8 7,5 30,6 25,3 16,2 11,5 8 5 20 11 E 1027,6 22 60 0,0
19.04.2018 13:00:00 22,8 8,1 28,6 22,8 15,6 11,5 8 4 17 9 E 1028,2 17 60 0,0
19.04.2018 12:00:00 21,5 8,2 26,3 19,9 15,1 11,5 10 5 19 10 E 1028,7 19 60 0,0
19.04.2018 11:00:00 20,4 8,0 24,1 16,9 14,9 11,5 12 7 23 12 E 1028,9 20 60 0,0
19.04.2018 10:00:00 18,6 7,8 20,7 14,4 14,9 11,5 12 6 21 11 E 1029,0 22 60 0,0
19.04.2018 09:00:00 15,8 10,0 16,6 12,6 15,1 11,4 0 0 6 3 N 1029,3 24 60 0,0
19.04.2018 08:00:00 11,8 8,7 11,4 11,9 15,4 11,4 4 2 9 5 W 1029,4 17 60 0,0
19.04.2018 07:00:00 10,4 7,5 7,3 12,0 15,8 11,4 5 3 8 4 WNW 1029,3 23 3 0,0
19.04.2018 06:00:00 10,8 8,3 7,5 12,5 16,1 11,4 5 3 8 4 WNW 1029,3 22 0 0,0
19.04.2018 05:00:00 11,3 8,2 7,7 13,1 16,5 11,4 6 3 8 4 W 1029,3 24 0 0,0
19.04.2018 04:00:00 11,7 7,8 8,2 13,8 16,9 11,4 6 3 9 5 WNW 1029,4 26 0 0,0
19.04.2018 03:00:00 12,5 7,6 8,7 14,4 17,3 11,3 6 3 8 4 WNW 1029,4 37 0 0,0
19.04.2018 02:00:00 13,1 7,9 9,0 15,2 17,7 11,3 5 3 8 5 NW 1029,6 38 0 0,0
19.04.2018 01:00:00 14,0 8,6 10,1 16,1 18,1 11,3 6 3 9 5 WNW 1029,5 27 0 0,0
19.04.2018 00:00:00 13,9 8,0 10,7 17,2 18,5 11,3 5 3 13 7 N 1029,5 26 0 0,0
18.04.2018 23:00:00 16,8 8,2 13,3 18,3 18,8 11,3 10 5 13 7 N 1029,4 31 0 0,0
18.04.2018 22:00:00 18,5 8,1 14,7 19,7 19,1 11,3 11 6 14 7 NNE 1029,4 35 0 0,0
18.04.2018 21:00:00 20,3 8,0 15,8 21,5 19,2 11,3 8 4 11 6 NE 1029,0 36 9 0,0
18.04.2018 20:00:00 23,6 7,3 19,5 23,9 19,1 11,2 5 3 15 8 SE 1028,7 37 60 0,0
18.04.2018 19:00:00 25,0 7,7 25,8 25,7 18,8 11,2 7 4 20 11 E 1028,8 34 60 0,0
18.04.2018 18:00:00 25,0 6,2 27,4 27,0 18,3 11,2 10 5 20 11 ESE 1029,2 34 60 0,0
18.04.2018 17:00:00 25,1 6,2 29,1 27,5 17,6 11,2 11 6 23 12 E 1029,5 27 60 0,0
18.04.2018 16:00:00 25,0 6,6 30,6 27,3 16,9 11,2 8 4 21 11 ESE 1030,0 31 60 0,0
18.04.2018 15:00:00 24,3 4,2 28,7 26,3 16,1 11,2 11 6 24 13 E 1030,7 25 60 0,0
18.04.2018 14:00:00 23,1 5,8 28,8 24,7 15,3 11,1 11 6 19 11 ESE 1030,9 27 60 0,0
18.04.2018 13:00:00 22,5 7,8 28,2 22,3 14,6 11,1 8 4 13 7 SE 1031,3 22 60 0,0
18.04.2018 12:00:00 20,9 8,5 25,6 19,1 14,1 11,1 8 4 16 8 E 1031,7 23 60 0,0
18.04.2018 11:00:00 17,6 9,7 21,2 15,9 13,9 11,1 5 3 8 4 S 1031,8 27 60 0,0
18.04.2018 10:00:00 14,6 8,7 18,1 13,1 13,9 11,1 4 2 9 5 WSW 1031,8 21 60 0,0
18.04.2018 09:00:00 11,5 7,7 13,5 11,5 14,1 11,1 6 3 11 6 SSW 1031,6 21 60 0,0
18.04.2018 08:00:00 10,4 7,6 9,6 10,8 14,4 11,0 3 2 6 3 WSW 1031,5 15 36 0,0
18.04.2018 07:00:00 9,2 8,2 5,5 11,0 14,8 11,0 3 2 5 3 SW 1031,0 14 0 0,0
18.04.2018 06:00:00 9,8 8,5 6,2 11,6 15,1 11,0 3 1 6 4 SW 1030,6 15 0 0,0
18.04.2018 05:00:00 10,4 8,7 7,1 12,2 15,5 11,0 5 3 8 5 W 1030,3 17 0 0,0
18.04.2018 04:00:00 10,8 8,2 7,5 12,8 15,8 11,0 3 2 7 4 WNW 1029,9 20 0 0,0
18.04.2018 03:00:00 11,1 8,3 8,2 13,5 16,2 11,0 4 2 6 4 WNW 1029,7 20 0 0,0
18.04.2018 02:00:00 12,6 9,4 8,6 14,2 16,6 11,0 4 2 8 4 W 1029,4 20 0 0,0
18.04.2018 01:00:00 13,3 8,7 9,5 15,0 17,0 11,0 6 3 10 5 WNW 1029,1 34 0 0,0
18.04.2018 00:00:00 13,2 8,9 10,2 15,9 17,3 11,0 6 3 9 5 NW 1028,5 28 0 0,0
17.04.2018 23:00:00 14,2 8,9 11,5 17,0 17,6 10,9 6 3 14 8 NNW 1028,1 25 0 0,0
17.04.2018 22:00:00 15,8 9,4 13,1 18,3 17,9 10,9 8 5 14 7 N 1027,6 29 0 0,0
17.04.2018 21:00:00 18,0 9,4 14,7 20,1 17,9 10,9 10 5 13 7 NNE 1026,8 29 6 0,0
17.04.2018 20:00:00 20,6 8,9 18,3 22,3 17,9 10,9 9 5 15 8 ESE 1025,8 27 51 0,0
17.04.2018 19:00:00 21,6 8,0 22,0 24,1 17,6 10,9 12 6 16 9 ESE 1025,3 35 60 0,0
17.04.2018 18:00:00 22,4 6,1 24,2 25,2 17,1 10,9 11 6 16 8 S 1024,9 37 60 0,0
17.04.2018 17:00:00 22,8 6,5 26,8 25,7 16,4 10,9 6 3 18 10 S 1024,8 34 60 0,0
17.04.2018 16:00:00 22,4 6,5 26,9 25,7 15,6 10,9 7 4 22 12 SW 1024,9 37 60 0,0
17.04.2018 15:00:00 21,7 7,1 26,4 24,8 14,8 10,8 9 5 19 10 SW 1025,2 25 60 0,0
17.04.2018 14:00:00 20,1 5,7 26,5 22,9 14,0 10,8 6 4 14 8 SSE 1025,4 26 60 0,0
17.04.2018 13:00:00 19,3 8,2 24,0 20,5 13,4 10,8 4 2 11 6 NNW 1025,7 17 60 0,0
17.04.2018 12:00:00 17,2 8,1 22,3 17,3 12,9 10,8 6 4 11 6 SSW 1026,1 12 60 0,0
17.04.2018 11:00:00 15,9 7,6 19,6 14,3 12,6 10,8 4 2 8 4 SSW 1026,1 16 60 0,0
17.04.2018 10:00:00 12,6 7,5 15,8 11,6 12,6 10,8 7 4 11 6 SW 1025,8 19 60 0,0
17.04.2018 09:00:00 10,3 6,8 11,9 10,0 12,8 10,7 5 3 8 5 SSW 1025,6 17 60 0,0
17.04.2018 08:00:00 8,1 5,8 7,3 9,4 13,1 10,7 5 3 8 4 SSW 1024,8 18 16 0,0
17.04.2018 07:00:00 7,3 6,0 4,5 9,5 13,4 10,7 4 2 6 3 SSW 1023,8 14 0 0,0
17.04.2018 06:00:00 8,5 7,0 4,6 10,0 13,7 10,7 4 2 6 4 WSW 1023,5 19 0 0,0
17.04.2018 05:00:00 9,1 7,1 6,0 10,5 14,1 10,7 6 3 8 4 W 1022,8 21 0 0,0
17.04.2018 04:00:00 10,2 7,2 6,8 11,1 14,4 10,7 5 3 13 7 WNW 1022,4 27 0 0,0

tt = Température de l'air
td = dewpoint
tt 5cm = Température de l'air 5cm
tt -5cm = Température de l'air -5cm
tt -20cm = Température de l'air -20cm
tt -100cm = Température de l'air -100cm
ff = Vitesse du vent
fx = gusts
dd = Direction du vent
ppp = reduced air pressure
vv = visibility
sd = Ensoleillement
rr = Quantités de précipitations

stations d'obs. à proximité